Regional Weather Roundup
Issued by NWS

Home | Current Version | Previous Version | Graphics & Text | Print | Product List | Glossary On
Versions: 1 2 3 4 5 6 7 8 9 10 11 12 13 14 15 16 17 18 19 20 21 22 23 24 25 26 27 28 29 30 31 32 33 34 35 36 37 38 39 40 41 42 43 44 45 46 47 48 49 50
000
ASUS43 KFSD 310102
RWRSD

WEATHER ROUNDUP FOR SOUTH DAKOTA
NATIONAL WEATHER SERVICE SIOUX FALLS SD
800 PM CDT SAT AUG 30 2014

NOTE: "FAIR" INDICATES FEW OR NO CLOUDS BELOW 12,000 FEET WITH NO
SIGNIFICANT WEATHER AND/OR OBSTRUCTIONS TO VISIBILITY.


SDZ001>005-009-010-012>017-310200-
NORTHWEST AND NORTH CENTRAL SOUTH DAKOTA

CITY           SKY/WX    TMP DP  RH WIND       PRES   REMARKS
BUFFALO          N/A     74  61  63 E20       29.50F
FAITH            N/A     74  61  63 SE21G30   29.62F
MOBRIDGE       CLEAR     70  59  68 SE15      29.69F
$$

SDZ012>016-024>037-041>051-057-063-072>074-310200-
SOUTHWEST AND SOUTH CENTRAL SOUTH DAKOTA

CITY           SKY/WX    TMP DP  RH WIND       PRES   REMARKS
RAPID CTY ARPT TSTM      75  53  46 SW7       29.66R
PIERRE         CLEAR     72  62  71 E18       29.69F
CUSTER         CLOUDY    69  45  41 SE9       29.82F
ELLSWORTH AFB  TSTM      69  58  66 NW9G17    29.66
PHILIP         CLEAR     81  62  52 SE12      29.63F
PINE RIDGE     PTCLDY    82  54  37 S16       29.68F
WINNER         FAIR      79  62  56 SE17      29.74F
$$

SDZ004>011-016>023-039-040-310200-
NORTHEAST SOUTH DAKOTA

CITY           SKY/WX    TMP DP  RH WIND       PRES   REMARKS
ABERDEEN       CLEAR     65  60  84 S6        29.79F
WATERTOWN      CLEAR     65  58  78 SE9       29.83F
SISSETON         N/A     65  62  90 SE6       29.81S
$$

SDZ017-020-022-023-036>040-048>070-310200-
SOUTHEAST SOUTH DAKOTA

CITY           SKY/WX    TMP DP  RH WIND       PRES   REMARKS
SIOUX FALLS    CLEAR     67  61  81 S6        29.85S
HURON          CLEAR     68  59  73 SE6       29.80F
CHAMBERLAIN    CLEAR     70  63  77 SE14      29.76F
MITCHELL       CLEAR     68  61  78 SE7       29.82S
YANKTON        CLEAR     70  63  78 E6        29.83S
$$

ABBREVIATIONS USED IN REMARKS
   TC - TEMPERATURE IN CELSIUS
  WCI - WIND CHILL INDEX
   HX - HEAT INDEX
  VSB - VISIBILITY




USA.gov is the U.S. government's official web portal to all federal, state and local government web resources and services.